• In Lithuania
  • List of Countries
  • For 7 days
  • Water Temperature
  • Satellite Maps
  • Weather Map
  • Weather Widgets
  • user-avatar
    Login

    Hourly Weather Dodoma

    Today, 22 July, Sunday

    Time Temperature Precipitation Wind Pressure Humidity
    00:00 +17°C° 0 mm 2 mps 670 mmHg 73%
    01:00 +16°C° 0 mm 1 mps 669 mmHg 76%
    02:00 +16°C° 0 mm 1 mps 669 mmHg 79%
    03:00 +15°C° 0 mm 1 mps 669 mmHg 82%
    04:00 +15°C° 0 mm 1 mps 669 mmHg 85%
    05:00 +14°C° 0 mm 1 mps 669 mmHg 88%
    06:00 +16°C° 0 mm 1 mps 670 mmHg 80%
    07:00 +18°C° 0 mm 2 mps 670 mmHg 72%
    08:00 +19°C° 0 mm 2 mps 671 mmHg 64%
    09:00 +21°C° 0 mm 2 mps 671 mmHg 56%
    10:00 +24°C° 0 mm 2 mps 671 mmHg 47%
    11:00 +26°C° 0 mm 3 mps 672 mmHg 39%
    12:00 +27°C° 0 mm 3 mps 671 mmHg 36%
    13:00 +28°C° 0 mm 3 mps 671 mmHg 33%
    14:00 +29°C° 0 mm 3 mps 670 mmHg 31%
    15:00 +28°C° 0 mm 3 mps 670 mmHg 32%
    16:00 +27°C° 0 mm 4 mps 669 mmHg 34%
    17:00 +27°C° 0 mm 4 mps 669 mmHg 36%
    18:00 +25°C° 0 mm 4 mps 669 mmHg 41%
    19:00 +22°C° 0 mm 4 mps 669 mmHg 46%
    20:00 +21°C° 0 mm 4 mps 669 mmHg 51%
    21:00 +20°C° 0 mm 3 mps 670 mmHg 54%
    22:00 +19°C° 0 mm 2 mps 670 mmHg 57%
    23:00 +18°C° 0 mm 2 mps 670 mmHg 60%

    Tomorrow, 23 July, Monday

    Time Temperature Precipitation Wind Pressure Humidity
    00:00 +18°C° 0 mm 1 mps 669 mmHg 63%
    01:00 +18°C° 0 mm 1 mps 669 mmHg 66%
    02:00 +16°C° 0 mm 1 mps 669 mmHg 68%
    03:00 +16°C° 0 mm 1 mps 669 mmHg 72%
    04:00 +15°C° 0 mm 1 mps 668 mmHg 75%
    05:00 +15°C° 0 mm 1 mps 668 mmHg 78%
    06:00 +16°C° 0 mm 2 mps 669 mmHg 73%
    07:00 +18°C° 0 mm 2 mps 670 mmHg 67%
    08:00 +19°C° 0 mm 3 mps 671 mmHg 62%
    09:00 +21°C° 0 mm 3 mps 671 mmHg 56%
    10:00 +22°C° 0 mm 3 mps 672 mmHg 49%
    11:00 +25°C° 0 mm 3 mps 672 mmHg 43%
    12:00 +26°C° 0 mm 3 mps 671 mmHg 40%
    13:00 +27°C° 0 mm 3 mps 671 mmHg 37%
    14:00 +28°C° 0 mm 3 mps 670 mmHg 34%
    15:00 +27°C° 0 mm 4 mps 670 mmHg 35%
    16:00 +27°C° 0 mm 4 mps 669 mmHg 37%
    17:00 +26°C° 0 mm 4 mps 669 mmHg 38%
    18:00 +23°C° 0 mm 4 mps 669 mmHg 43%
    19:00 +22°C° 0 mm 3 mps 669 mmHg 49%
    20:00 +20°C° 0 mm 3 mps 670 mmHg 54%
    21:00 +19°C° 0 mm 3 mps 670 mmHg 57%
    22:00 +18°C° 0 mm 2 mps 670 mmHg 61%
    23:00 +18°C° 0 mm 2 mps 670 mmHg 64%

    Day after tomorrow, 24 July, Tuesday

    Time Temperature Precipitation Wind Pressure Humidity
    00:00 +17°C° 0 mm 2 mps 669 mmHg 67%
    01:00 +16°C° 0 mm 1 mps 669 mmHg 70%
    02:00 +16°C° 0 mm 1 mps 668 mmHg 73%
    03:00 +15°C° 0 mm 1 mps 668 mmHg 75%
    04:00 +15°C° 0 mm 1 mps 668 mmHg 78%
    05:00 +14°C° 0 mm 1 mps 668 mmHg 80%
    06:00 +16°C° 0 mm 1 mps 669 mmHg 74%
    07:00 +18°C° 0 mm 2 mps 670 mmHg 67%
    08:00 +19°C° 0 mm 3 mps 671 mmHg 61%
    09:00 +21°C° 0 mm 3 mps 671 mmHg 54%
    10:00 +24°C° 0 mm 3 mps 671 mmHg 47%
    11:00 +26°C° 0 mm 3 mps 671 mmHg 40%
    12:00 +27°C° 0 mm 3 mps 671 mmHg 37%
    13:00 +27°C° 0 mm 3 mps 670 mmHg 34%
    14:00 +28°C° 0 mm 3 mps 669 mmHg 31%
    15:00 +27°C° 0 mm 3 mps 669 mmHg 32%
    16:00 +27°C° 0 mm 3 mps 669 mmHg 33%
    17:00 +26°C° 0 mm 3 mps 669 mmHg 33%
    18:00 +25°C° 0 mm 3 mps 669 mmHg 37%
    19:00 +22°C° 0 mm 3 mps 669 mmHg 41%
    20:00 +21°C° 0 mm 3 mps 669 mmHg 45%
    21:00 +20°C° 0 mm 3 mps 669 mmHg 48%
    22:00 +19°C° 0 mm 2 mps 670 mmHg 52%
    23:00 +18°C° 0 mm 2 mps 670 mmHg 55%

    25 July, Wednesday

    Time Temperature Precipitation Wind Pressure Humidity
    00:00 +17°C° 0 mm 2 mps 669 mmHg 58%
    01:00 +17°C° 0 mm 2 mps 668 mmHg 61%
    02:00 +16°C° 0 mm 1 mps 667 mmHg 64%
    03:00 +15°C° 0 mm 1 mps 668 mmHg 69%
    04:00 +15°C° 0 mm 1 mps 668 mmHg 73%
    05:00 +14°C° 0 mm 1 mps 668 mmHg 78%
    06:00 +16°C° 0 mm 1 mps 669 mmHg 72%
    07:00 +18°C° 0 mm 2 mps 670 mmHg 67%
    08:00 +19°C° 0 mm 2 mps 671 mmHg 61%
    09:00 +21°C° 0 mm 2 mps 671 mmHg 54%
    10:00 +24°C° 0 mm 3 mps 670 mmHg 47%
    11:00 +26°C° 0 mm 3 mps 670 mmHg 39%
    12:00 +27°C° 0 mm 3 mps 670 mmHg 36%
    13:00 +28°C° 0 mm 3 mps 669 mmHg 33%
    14:00 +29°C° 0 mm 2 mps 668 mmHg 29%
    15:00 +28°C° 0 mm 3 mps 668 mmHg 30%
    16:00 +27°C° 0 mm 3 mps 668 mmHg 32%
    17:00 +26°C° 0 mm 3 mps 668 mmHg 33%
    18:00 +25°C° 0 mm 3 mps 668 mmHg 37%
    19:00 +24°C° 0 mm 3 mps 669 mmHg 41%
    20:00 +21°C° 0 mm 3 mps 669 mmHg 45%
    21:00 +20°C° 0 mm 3 mps 669 mmHg 49%
    22:00 +19°C° 0 mm 2 mps 668 mmHg 53%
    23:00 +18°C° 0 mm 2 mps 668 mmHg 56%

    26 July, Thursday

    Time Temperature Precipitation Wind Pressure Humidity
    00:00 +18°C° 0 mm 2 mps 668 mmHg 59%
    01:00 +18°C° 0 mm 1 mps 667 mmHg 62%
    02:00 +16°C° 0 mm 1 mps 667 mmHg 64%
    03:00 +16°C° 0 mm 1 mps 667 mmHg 68%
    04:00 +15°C° 0 mm 1 mps 667 mmHg 72%
    05:00 +15°C° 0 mm 1 mps 667 mmHg 75%
    06:00 +16°C° 0 mm 1 mps 668 mmHg 70%
    07:00 +18°C° 0 mm 2 mps 669 mmHg 65%
    08:00 +19°C° 0 mm 2 mps 670 mmHg 60%
    09:00 +23°C° 0 mm 2 mps 670 mmHg 51%
    10:00 +25°C° 0 mm 2 mps 670 mmHg 43%
    11:00 +27°C° 0 mm 2 mps 670 mmHg 35%
    12:00 +28°C° 0 mm 2 mps 669 mmHg 33%
    13:00 +29°C° 0 mm 2 mps 669 mmHg 30%
    14:00 +30°C° 0 mm 2 mps 668 mmHg 28%
    15:00 +29°C° 0 mm 2 mps 668 mmHg 30%
    16:00 +28°C° 0 mm 2 mps 668 mmHg 31%
    17:00 +28°C° 0 mm 2 mps 668 mmHg 33%
    18:00 +26°C° 0 mm 3 mps 668 mmHg 38%
    19:00 +25°C° 0 mm 3 mps 668 mmHg 43%
    20:00 +22°C° 0 mm 3 mps 669 mmHg 47%
    21:00 +21°C° 0 mm 3 mps 668 mmHg 51%
    22:00 +20°C° 0 mm 2 mps 668 mmHg 54%
    23:00 +19°C° 0 mm 2 mps 668 mmHg 57%

    27 July, Friday

    Time Temperature Precipitation Wind Pressure Humidity
    00:00 +20°C° 0 mm 1 mps 668 mmHg 60%
    01:00 +19°C° 0 mm 1 mps 667 mmHg 62%
    02:00 +18°C° 0 mm 1 mps 667 mmHg 65%
    03:00 +18°C° 0 mm 1 mps 667 mmHg 68%
    04:00 +16°C° 0 mm 1 mps 667 mmHg 71%
    05:00 +16°C° 0 mm 1 mps 668 mmHg 74%
    06:00 +17°C° 0 mm 2 mps 668 mmHg 70%
    07:00 +19°C° 0 mm 2 mps 669 mmHg 66%
    08:00 +20°C° 0 mm 3 mps 670 mmHg 62%
    09:00 +22°C° 0 mm 3 mps 670 mmHg 54%
    10:00 +25°C° 0 mm 3 mps 670 mmHg 46%
    11:00 +28°C° 0 mm 3 mps 670 mmHg 37%
    12:00 +28°C° 0 mm 3 mps 670 mmHg 35%
    13:00 +29°C° 0 mm 2 mps 669 mmHg 32%
    14:00 +30°C° 0 mm 2 mps 669 mmHg 30%
    15:00 +30°C° 0 mm 3 mps 668 mmHg 32%
    16:00 +29°C° 0 mm 3 mps 668 mmHg 34%
    17:00 +28°C° 0 mm 3 mps 668 mmHg 36%
    18:00 +26°C° 0 mm 3 mps 668 mmHg 41%
    19:00 +25°C° 0 mm 3 mps 668 mmHg 47%
    20:00 +22°C° 0 mm 3 mps 668 mmHg 53%
    21:00 +21°C° 0 mm 3 mps 668 mmHg 55%
    22:00 +20°C° 0 mm 2 mps 668 mmHg 58%
    23:00 +20°C° 0 mm 2 mps 668 mmHg 61%
    Show more